Niagara Falls, NY
on Friday, December 8, 2017

Friday
       
Previous Day Next Day
Daily Summary
 ActualAverageRecord
Temperature
Mean Temperature °F °C °F °C  
Max Temperature 35°F 2°C 38°F 3°C 57°F 13°C (1991)
Min Temperature 26°F -3°C 26°F -3°C 8°F -13°C (2005)
Degree Days
Heating Degree Days 34    
Moisture
Dew Point 17°F -8°C   
Average Humidity 57    
Maximum Humidity 78    
Minimum Humidity 47    
Precipitation
Precipitation 0.00 in / 0.00 cm in / cm in / cm ()
Wind
Wind Speed 16 mph / 26 km/h   
Max Wind Speed 28 mph / 45 km/h   
Max Gust Speed 36 mph / 58 km/h   
Visibility 9 miles / 14 kilometers   
Events Snow   
Averages and records for this station are not official NWS values.
Key: T is trace of precipitation, MM is missing value
Source: NWS Daily Summary
Seasonal Weather Averages
Time(EST)TemperatureDew PointHumidity Pressure Visibility Wind DirectionWind SpeedGust SpeedPrecipitationEvents Conditions
12:53 AM 30.0°F -1.1°C 12.0°F -11.1°C 47% 29.98 in / 1015.1 hPa 10.0 miles / 16.1 kilometers West 12.7 mph / 20.4 km/h - N/A   Overcast
1:53 AM 30.0°F -1.1°C 12.9°F -10.6°C 49% 29.98 in / 1015.1 hPa 10.0 miles / 16.1 kilometers West 15.0 mph / 24.1 km/h 24.2 mph / 38.9 km/h N/A   Overcast
2:53 AM 28.9°F -1.7°C 12.9°F -10.6°C 51% 30.00 in / 1015.8 hPa 10.0 miles / 16.1 kilometers West 18.4 mph / 29.6 km/h 25.3 mph / 40.7 km/h N/A   Overcast
3:53 AM 28.0°F -2.2°C 10.9°F -11.7°C 49% 30.01 in / 1016.2 hPa 10.0 miles / 16.1 kilometers West 13.8 mph / 22.2 km/h - N/A   Overcast
4:53 AM 27.0°F -2.8°C 10.0°F -12.2°C 49% 30.02 in / 1016.4 hPa 10.0 miles / 16.1 kilometers West 16.1 mph / 25.9 km/h - N/A   Overcast
5:53 AM 28.0°F -2.2°C 12.0°F -11.1°C 51% 30.00 in / 1015.9 hPa 10.0 miles / 16.1 kilometers West 13.8 mph / 22.2 km/h - N/A   Mostly Cloudy
6:53 AM 28.0°F -2.2°C 14.0°F -10.0°C 56% 30.00 in / 1015.9 hPa 10.0 miles / 16.1 kilometers WSW 15.0 mph / 24.1 km/h - N/A   Mostly Cloudy
7:53 AM 28.0°F -2.2°C 16.0°F -8.9°C 61% 30.00 in / 1015.9 hPa 10.0 miles / 16.1 kilometers SW 10.4 mph / 16.7 km/h - 0.00 in / 0.0 cm   Mostly Cloudy
8:48 AM 26.6°F -3.0°C 19.4°F -7.0°C 74% 29.96 in / 1014.4 hPa 5.0 miles / 8.0 kilometers SW 10.4 mph / 16.7 km/h - 0.00 in / 0.0 cm Snow Light Snow
8:53 AM 27.0°F -2.8°C 19.0°F -7.2°C 72% 30.01 in / 1016.2 hPa 4.0 miles / 6.4 kilometers SW 10.4 mph / 16.7 km/h - 0.00 in / 0.0 cm Snow Light Snow
9:53 AM 28.0°F -2.2°C 21.9°F -5.6°C 78% 30.00 in / 1015.7 hPa 2.0 miles / 3.2 kilometers SW 8.1 mph / 13.0 km/h - 0.00 in / 0.0 cm Snow Light Snow
10:30 AM 30.9°F -0.6°C 23.0°F -5.0°C 72% 29.95 in / 1014.1 hPa 5.0 miles / 8.0 kilometers SW 25.3 mph / 40.7 km/h 32.2 mph / 51.9 km/h 0.00 in / 0.0 cm Snow Light Snow
10:53 AM 30.9°F -0.6°C 21.9°F -5.6°C 69% 30.00 in / 1015.7 hPa 8.0 miles / 12.9 kilometers SW 25.3 mph / 40.7 km/h 32.2 mph / 51.9 km/h 0.00 in / 0.0 cm Snow Light Snow
11:53 AM 30.0°F -1.1°C 19.9°F -6.7°C 66% 29.97 in / 1014.9 hPa 9.0 miles / 14.5 kilometers SW 27.6 mph / 44.4 km/h 34.5 mph / 55.6 km/h 0.00 in / 0.0 cm Snow Light Snow
12:53 PM 30.9°F -0.6°C 19.0°F -7.2°C 61% 29.94 in / 1013.8 hPa 10.0 miles / 16.1 kilometers SSW 27.6 mph / 44.4 km/h 32.2 mph / 51.9 km/h 0.00 in / 0.0 cm   Overcast
1:53 PM 30.9°F -0.6°C 19.0°F -7.2°C 61% 29.91 in / 1012.6 hPa 10.0 miles / 16.1 kilometers SW 23.0 mph / 37.0 km/h 34.5 mph / 55.6 km/h N/A   Overcast
2:31 PM 32.0°F 0.0°C 18.0°F -7.8°C 56% 29.86 in / 1011.1 hPa 10.0 miles / 16.1 kilometers SW 19.6 mph / 31.5 km/h 32.2 mph / 51.9 km/h N/A   Overcast
2:53 PM 32.0°F 0.0°C 18.0°F -7.8°C 56% 29.92 in / 1013.0 hPa 10.0 miles / 16.1 kilometers SW 26.5 mph / 42.6 km/h 35.7 mph / 57.4 km/h N/A   Overcast
3:53 PM 33.1°F 0.6°C 16.0°F -8.9°C 50% 29.91 in / 1012.8 hPa 10.0 miles / 16.1 kilometers SW 20.7 mph / 33.3 km/h 34.5 mph / 55.6 km/h N/A   Mostly Cloudy
4:53 PM 33.1°F 0.6°C 16.0°F -8.9°C 50% 29.91 in / 1012.8 hPa 10.0 miles / 16.1 kilometers SW 25.3 mph / 40.7 km/h 33.4 mph / 53.7 km/h N/A   Clear
5:53 PM 34.0°F 1.1°C 16.0°F -8.9°C 48% 29.92 in / 1013.2 hPa 10.0 miles / 16.1 kilometers WSW 18.4 mph / 29.6 km/h 26.5 mph / 42.6 km/h N/A   Mostly Cloudy
6:53 PM 35.1°F 1.7°C 17.1°F -8.3°C 48% 29.93 in / 1013.3 hPa 10.0 miles / 16.1 kilometers WSW 18.4 mph / 29.6 km/h 27.6 mph / 44.4 km/h N/A   Overcast
7:53 PM 35.1°F 1.7°C 19.0°F -7.2°C 52% 29.91 in / 1012.9 hPa 10.0 miles / 16.1 kilometers West 16.1 mph / 25.9 km/h 23.0 mph / 37.0 km/h N/A   Overcast
8:53 PM 34.0°F 1.1°C 19.9°F -6.7°C 56% 29.92 in / 1013.1 hPa 10.0 miles / 16.1 kilometers West 11.5 mph / 18.5 km/h - N/A   Overcast
9:53 PM 34.0°F 1.1°C 19.0°F -7.2°C 54% 29.94 in / 1013.6 hPa 10.0 miles / 16.1 kilometers West 11.5 mph / 18.5 km/h - N/A   Overcast
10:53 PM 33.1°F 0.6°C 19.0°F -7.2°C 56% 29.92 in / 1013.1 hPa 10.0 miles / 16.1 kilometers WSW 11.5 mph / 18.5 km/h - N/A   Overcast
11:53 PM 33.1°F 0.6°C 17.1°F -8.3°C 52% 29.92 in / 1013.0 hPa 10.0 miles / 16.1 kilometers SW 6.9 mph / 11.1 km/h - N/A   Overcast